Location: Clermont
(50.2608°N, 4.3172°E)
Time: 23:55:01
(UTC+00:00)

Cosmos 2242 Rocket - Pass Details

Date: 13 August 2020
Orbit: 618 x 652 km, 82.5° (Epoch: 23 September)

Event Time Altitude Azimuth Distance (km) Brightness Sun altitude
Rises 20:52:05 0° 348° (NNW) 2,925 8.1 -14.9°
Reaches altitude 10° 20:54:20 10° 347° (NNW) 2,009 7.1 -15.1°
Maximum altitude 20:58:47 76° 263° (W) 647 3.7 -15.6°
Enters shadow 21:01:47 20° 180° (S) 1,438 5.0 -15.9°
